THORAD AGENA D DEB

Satellite information

Favourite Embed

Satellite Type and Status

DEBRISIN ORBIT

Key statistics

Satellite THORAD AGENA D DEB at a glance.

Uptime

20179

Days in orbit

Revolutions

≈ 14.1

Per day

Orbit

SSO

Sun Synchronous Orbit

Inclination

100.0

Latest

Satellite identification and parameters

Extended collection of information and parameters for THORAD AGENA D DEB.

Object identification

Identified? True

Debris? True

Object name: THORAD AGENA D DEB

International designator: 1970-025KX

Object number (NORAD): 5392

Object ID (CCSDS): 5392

Country: UNITED STATES OF AMERICA (US)

Current information (Y/N): Y

RCS size: SMALL

Orbital parameters

Period: 102.125 minutes

Inclination: 100.0208 deg

SMA: 7237.364 km

Apoapsis: 892.694 km

Periapsis: 825.763 km

RAAN: 94.522 deg

Eccentricy: 0.004624

Argument of periapsis: 131.3159 deg

Mean anomaly: 229.2001 deg

Mean motion: 14.10042323 rev/day

Mean motion (dot): 0.00001277 rev/day2

B* drag term: 0.00074624 1/REarth

Two-line elements (TLE)

Creation date: July 5, 2025, 5:45 p.m.

Reference frame: TEME

Reference center: EARTH

Epoch: July 5, 2025, 5:59 a.m. UTC

TLE line 0: 0 THORAD AGENA D DEB

TLE line 1: 1 05392U 70025KX 25186.24962025 .00001277 00000-0 74624-3 0 9998

TLE line 2: 2 05392 100.0208 94.5220 0046240 131.3159 229.2001 14.10042323795606

Live tracking on map

Real-time ground track for satellite THORAD AGENA D DEB.

In-orbit conjunctions

A list of the most updated potential collisions computed for object THORAD AGENA D DEB.

Target Orbit TCA Probability of collision Miss distance Type
FENGYUN 1C DEB SSO 2025-06-05 03:16:16 0.0001078816 264.0 (m) DEBRIS
COSMOS 2297 LEO 2025-01-13 11:01:10 0.0001003282 788.0 (m) PAYLOAD
CZ-6A DEB LEO 2024-12-09 17:12:07 0.0001509436 799.0 (m) DEBRIS
FENGYUN 1C DEB SSO 2024-11-11 05:38:15 0.0002471486 320.0 (m) DEBRIS
FENGYUN 1C DEB SSO 2024-09-27 02:43:44 0.0002207368 291.0 (m) DEBRIS

Associated space launch

Meteorological research and development satellite

THORAD AGENA D DEB was lifted into orbit during the mission ‘Thorad SLV-2G Agena D | Nimbus 4’, on board a Thorad SLV-2G Agena D space rocket.

The launch took place on April 8, 1970, 8:17 a.m. from Space Launch Complex 2E.

For more information about the launch, click the button.

Launch to space Thorad SLV-2G Agena D | Nimbus 4
Thorad SLV-2G Agena D | Nimbus 4

Agency: N/A

Status: Launch Successful

Launch date: April 8, 1970, 8:17 a.m. UTC

Rocket: Thorad SLV-2G Agena D

Launch pad: Space Launch Complex 2E

Location: Vandenberg SFB, CA, USA

...

Latest news about this satellite

There are no fresh news available about this satellite. Check back as we update our databases every day.


Newsletter sign-up

Weekly statistics, charts and insights to help you stay on top of the space industry.